Location: Cabri�res
(43.7840°N, 5.4986°E)
Time: 22:25:22
(UTC+00:00)

Cosmos 1570 Rocket - Pass Details

Date: 09 April 2020
Orbit: 764 x 787 km, 74.1° (Epoch: 05 June)

Event Time Altitude Azimuth Distance (km) Brightness Sun altitude
Rises 20:46:46 0° 341° (NNW) 3,289 8.2 -25.2°
Reaches altitude 10° 20:49:12 10° 344° (NNW) 2,355 7.3 -25.5°
Enters shadow 20:54:25 68° 59° (ENE) 847 4.0 -26.2°
